Terminal Aerodrome Forecast
Issued by NWS Cleveland, OH

Home | Current Version | Previous Version | Graphics & Text | Print | Product List | Glossary Off
Versions: 1 2 3 4 5 6 7 8 9 10 11 12 13 14 15 16

127
FTUS41 KCLE 221141
TAFERI
TAF
KERI 221141Z 2212/2312 19010KT P6SM SCT040 BKN130
     FM221800 22015G23KT P6SM -TSRA SCT040CB BKN060
     FM222100 25018G30KT P6SM -SHRA VCTS SCT040CB BKN050
     FM230000 28015G30KT P6SM BKN040
     FM230300 32012G21KT P6SM BKN050
     FM230400 32012G22KT P6SM SCT100
     FM231100 29010G20KT P6SM SKC=

USA.gov is the U.S. government's official web portal to all federal, state and local government web resources and services.